Time,TemperatureF,DewpointF,PressureIn,WindDirection,WindDirectionDegrees,WindSpeedMPH,WindSpeedGustMPH,Humidity,HourlyPrecipIn,Conditions,Clouds,dailyrainin,SolarRadiationWatts/m^2,SoftwareType,DateUTC
2013-04-09 00:04:00,72.7,63.1,29.75,SSE,158,13.8,13.8,72,0.00,CLR,,0.00,460.0,WeatherDisplay:10.37,2013-04-09 05:04:00,
2013-04-09 00:09:00,72.7,63.1,29.74,SSE,158,9.8,9.8,72,0.00,CLR,,0.00,460.0,WeatherDisplay:10.37,2013-04-09 05:09:00,
2013-04-09 00:14:00,72.5,63.4,29.74,SSE,158,12.1,12.1,73,0.00,CLR,,0.00,460.0,WeatherDisplay:10.37,2013-04-09 05:14:00,
2013-04-09 00:19:00,72.3,63.2,29.74,ESE,112,12.7,12.7,73,0.00,CLR,,0.00,490.0,WeatherDisplay:10.37,2013-04-09 05:19:00,
2013-04-09 00:24:00,72.5,63.7,29.74,SE,135,10.4,10.4,74,0.00,CLR,,0.00,500.0,WeatherDisplay:10.37,2013-04-09 05:24:00,
2013-04-09 00:29:00,72.5,63.7,29.73,SSE,158,17.6,17.6,74,0.00,CLR,,0.00,500.0,WeatherDisplay:10.37,2013-04-09 05:29:00,
2013-04-09 00:35:00,72.3,63.6,29.73,South,180,9.2,9.2,74,0.00,CLR,,0.00,510.0,WeatherDisplay:10.37,2013-04-09 05:35:00,
2013-04-09 00:40:00,72.1,63.4,29.73,SE,135,9.2,9.2,74,0.00,CLR,,0.00,520.0,WeatherDisplay:10.37,2013-04-09 05:40:00,
2013-04-09 00:45:00,72.1,63.8,29.73,SSE,158,9.2,9.2,75,0.00,CLR,,0.00,520.0,WeatherDisplay:10.37,2013-04-09 05:45:00,
2013-04-09 00:50:00,72.0,63.6,29.73,SE,135,9.2,9.2,75,0.00,CLR,,0.00,530.0,WeatherDisplay:10.37,2013-04-09 05:50:00,
2013-04-09 00:56:00,72.1,63.8,29.73,SSE,158,11.5,11.5,75,0.00,CLR,,0.00,540.0,WeatherDisplay:10.37,2013-04-09 05:56:00,
2013-04-09 01:01:00,72.1,63.8,29.73,South,180,11.5,11.5,75,0.00,CLR,,0.00,560.0,WeatherDisplay:10.37,2013-04-09 06:01:00,
2013-04-09 01:07:00,71.8,63.8,29.73,SE,135,16.1,16.1,76,0.00,CLR,,0.00,560.0,WeatherDisplay:10.37,2013-04-09 06:07:00,
2013-04-09 01:12:00,71.8,63.8,29.73,SSE,158,12.7,12.7,76,0.00,CLR,,0.00,570.0,WeatherDisplay:10.37,2013-04-09 06:12:00,
2013-04-09 01:17:00,71.8,63.8,29.73,South,180,10.5,10.5,76,0.00,CLR,,0.00,580.0,WeatherDisplay:10.37,2013-04-09 06:17:00,
2013-04-09 01:22:00,71.8,63.8,29.73,North,0,11.5,11.5,76,0.00,CLR,,0.00,580.0,WeatherDisplay:10.37,2013-04-09 06:22:00,
2013-04-09 01:27:00,71.8,64.2,29.73,SSE,158,12.7,12.7,77,0.00,CLR,,0.00,590.0,WeatherDisplay:10.37,2013-04-09 06:27:00,
2013-04-09 01:32:00,71.6,64.0,29.73,SSE,158,11.5,11.5,77,0.00,CLR,,0.00,590.0,WeatherDisplay:10.37,2013-04-09 06:32:00,
2013-04-09 01:37:00,71.6,64.0,29.73,SSE,158,13.8,13.8,77,0.00,CLR,,0.00,590.0,WeatherDisplay:10.37,2013-04-09 06:37:00,
2013-04-09 01:43:00,71.8,64.2,29.73,SE,135,9.2,9.2,77,0.00,CLR,,0.00,0.0,WeatherDisplay:10.37,2013-04-09 06:43:00,
2013-04-09 01:48:00,71.6,64.0,29.73,SSE,158,4.1,6.1,77,0.00,CLR,,0.00,610.0,WeatherDisplay:10.37,2013-04-09 06:48:00,
2013-04-09 01:53:00,71.6,64.0,29.73,SE,135,8.1,8.1,77,0.00,CLR,,0.00,610.0,WeatherDisplay:10.37,2013-04-09 06:53:00,
2013-04-09 01:58:00,71.4,64.2,29.73,ESE,112,12.7,12.7,78,0.00,CLR,,0.00,620.0,WeatherDisplay:10.37,2013-04-09 06:58:00,
2013-04-09 02:03:00,71.4,64.2,29.73,NW,315,12.7,12.7,78,0.00,CLR,,0.00,620.0,WeatherDisplay:10.37,2013-04-09 07:03:00,
2013-04-09 02:09:00,71.2,64.4,29.72,ESE,112,9.2,9.2,79,0.00,CLR,,0.00,610.0,WeatherDisplay:10.37,2013-04-09 07:09:00,
2013-04-09 02:14:00,71.4,64.6,29.72,ESE,112,8.1,8.1,79,0.00,CLR,,0.00,610.0,WeatherDisplay:10.37,2013-04-09 07:14:00,
2013-04-09 02:19:00,71.1,64.2,29.72,ESE,112,10.4,10.4,79,0.00,CLR,,0.00,620.0,WeatherDisplay:10.37,2013-04-09 07:19:00,
2013-04-09 02:25:00,71.1,64.6,29.72,ESE,112,10.4,10.4,80,0.00,CLR,,0.00,0.0,WeatherDisplay:10.37,2013-04-09 07:25:00,
2013-04-09 02:30:00,71.1,64.6,29.72,SE,135,5.8,6.6,80,0.00,CLR,,0.00,620.0,WeatherDisplay:10.37,2013-04-09 07:30:00,
2013-04-09 02:35:00,70.9,64.8,29.72,SE,135,13.8,13.8,81,0.00,CLR,,0.00,620.0,WeatherDisplay:10.37,2013-04-09 07:35:00,
2013-04-09 02:40:00,71.1,64.9,29.72,SSE,158,12.7,12.7,81,0.00,CLR,,0.00,640.0,WeatherDisplay:10.37,2013-04-09 07:40:00,
2013-04-09 02:45:00,70.9,65.1,29.72,SSE,158,12.7,12.7,82,0.00,CLR,,0.00,640.0,WeatherDisplay:10.37,2013-04-09 07:45:00,
2013-04-09 02:50:00,70.7,65.3,29.70,ESE,112,6.9,6.9,83,0.00,CLR,,0.00,640.0,WeatherDisplay:10.37,2013-04-09 07:50:00,
2013-04-09 02:56:00,70.7,65.3,29.70,SE,135,11.5,11.5,83,0.00,CLR,,0.00,640.0,WeatherDisplay:10.37,2013-04-09 07:56:00,
2013-04-09 03:01:00,70.7,65.3,29.70,SE,135,11.5,11.5,83,0.00,CLR,,0.00,640.0,WeatherDisplay:10.37,2013-04-09 08:01:00,
2013-04-09 03:07:00,70.5,65.1,29.70,SE,135,10.5,10.5,83,0.00,CLR,,0.00,640.0,WeatherDisplay:10.37,2013-04-09 08:07:00,
2013-04-09 03:12:00,70.2,64.8,29.69,SSE,158,11.0,11.0,83,0.00,CLR,,0.00,640.0,WeatherDisplay:10.37,2013-04-09 08:12:00,
2013-04-09 03:17:00,70.2,64.8,29.69,SE,135,8.1,8.1,83,0.00,CLR,,0.00,630.0,WeatherDisplay:10.37,2013-04-09 08:17:00,
2013-04-09 03:23:00,70.2,64.8,29.69,South,180,18.4,18.4,83,0.00,CLR,,0.00,640.0,WeatherDisplay:10.37,2013-04-09 08:23:00,
2013-04-09 03:28:00,70.2,64.8,29.69,SSE,158,11.5,11.5,83,0.00,CLR,,0.00,650.0,WeatherDisplay:10.37,2013-04-09 08:28:00,
2013-04-09 03:33:00,70.2,64.8,29.69,SE,135,6.9,6.9,83,0.00,CLR,,0.00,660.0,WeatherDisplay:10.37,2013-04-09 08:33:00,
2013-04-09 03:39:00,70.2,64.8,29.69,SE,135,10.4,10.4,83,0.00,CLR,,0.00,670.0,WeatherDisplay:10.37,2013-04-09 08:39:00,
2013-04-09 03:45:00,70.0,64.6,29.69,ESE,112,8.1,8.1,83,0.00,CLR,,0.00,0.0,WeatherDisplay:10.37,2013-04-09 08:45:00,
2013-04-09 03:50:00,70.0,64.6,29.68,SE,135,9.2,9.2,83,0.00,CLR,,0.00,690.0,WeatherDisplay:10.37,2013-04-09 08:50:00,
2013-04-09 03:55:00,70.0,64.9,29.68,SE,135,10.4,10.4,84,0.00,CLR,,0.00,670.0,WeatherDisplay:10.37,2013-04-09 08:55:00,
2013-04-09 04:00:00,69.8,64.7,29.68,SSE,158,14.1,14.1,84,0.00,CLR,,0.00,680.0,WeatherDisplay:10.37,2013-04-09 09:00:00,
2013-04-09 04:06:00,70.0,64.9,29.68,SSW,202,8.1,8.1,84,0.00,CLR,,0.00,650.0,WeatherDisplay:10.37,2013-04-09 09:06:00,
2013-04-09 04:11:00,69.6,64.6,29.69,SE,135,11.5,11.5,84,0.00,CLR,,0.00,620.0,WeatherDisplay:10.37,2013-04-09 09:11:00,
2013-04-09 04:17:00,69.6,64.6,29.69,South,180,9.2,9.2,84,0.00,CLR,,0.00,0.0,WeatherDisplay:10.37,2013-04-09 09:17:00,
2013-04-09 04:22:00,69.4,64.4,29.69,SE,135,11.5,11.5,84,0.00,CLR,,0.00,540.0,WeatherDisplay:10.37,2013-04-09 09:22:00,
2013-04-09 04:27:00,69.4,64.4,29.69,SSE,158,10.4,10.4,84,0.00,CLR,,0.00,570.0,WeatherDisplay:10.37,2013-04-09 09:27:00,
2013-04-09 04:33:00,69.4,64.4,29.69,SE,135,11.5,11.5,84,0.00,CLR,,0.00,0.0,WeatherDisplay:10.37,2013-04-09 09:33:00,
2013-04-09 04:38:00,69.4,64.4,29.69,NW,315,19.6,19.6,84,0.00,CLR,,0.00,600.0,WeatherDisplay:10.37,2013-04-09 09:38:00,
2013-04-09 04:43:00,69.6,64.6,29.69,South,180,10.4,10.4,84,0.00,CLR,,0.00,600.0,WeatherDisplay:10.37,2013-04-09 09:43:00,
2013-04-09 04:48:00,69.6,64.6,29.68,SE,135,11.5,11.5,84,0.00,CLR,,0.00,600.0,WeatherDisplay:10.37,2013-04-09 09:48:00,
2013-04-09 04:54:00,69.8,64.7,29.68,SSE,158,6.9,8.7,84,0.00,CLR,,0.00,620.0,WeatherDisplay:10.37,2013-04-09 09:54:00,
2013-04-09 04:59:00,69.8,64.4,29.68,SE,135,15.0,15.0,83,0.00,CLR,,0.00,640.0,WeatherDisplay:10.37,2013-04-09 09:59:00,
2013-04-09 05:05:00,70.0,64.6,29.68,SE,135,13.8,13.8,83,0.00,CLR,,0.00,0.0,WeatherDisplay:10.37,2013-04-09 10:05:00,
2013-04-09 05:10:00,70.0,64.6,29.69,South,180,10.4,10.4,83,0.00,CLR,,0.00,670.0,WeatherDisplay:10.37,2013-04-09 10:10:00,
2013-04-09 05:15:00,70.2,64.8,29.69,SSE,158,15.0,15.0,83,0.00,CLR,,0.00,670.0,WeatherDisplay:10.37,2013-04-09 10:15:00,
2013-04-09 05:20:00,70.2,64.8,29.69,SSE,158,15.0,15.0,83,0.00,CLR,,0.00,710.0,WeatherDisplay:10.37,2013-04-09 10:20:00,
2013-04-09 05:26:00,70.2,64.8,29.69,South,180,8.1,8.1,83,0.00,CLR,,0.00,710.0,WeatherDisplay:10.37,2013-04-09 10:26:00,
2013-04-09 05:31:00,70.2,64.8,29.69,SSE,158,12.7,12.7,83,0.00,CLR,,0.00,630.0,WeatherDisplay:10.37,2013-04-09 10:31:00,
2013-04-09 05:36:00,70.2,64.8,29.69,SSW,202,6.9,6.9,83,0.00,CLR,,0.00,630.0,WeatherDisplay:10.37,2013-04-09 10:36:00,
2013-04-09 05:42:00,70.3,64.9,29.69,SSE,158,12.7,12.7,83,0.00,CLR,,0.00,0.0,WeatherDisplay:10.37,2013-04-09 10:42:00,
2013-04-09 05:47:00,70.3,64.9,29.69,SE,135,11.5,11.5,83,0.00,CLR,,0.00,590.0,WeatherDisplay:10.37,2013-04-09 10:47:00,
2013-04-09 05:52:00,70.3,64.9,29.69,SE,135,11.5,11.5,83,0.00,CLR,,0.00,620.0,WeatherDisplay:10.37,2013-04-09 10:52:00,
2013-04-09 05:57:00,70.2,64.8,29.69,SSE,158,13.8,13.8,83,0.00,CLR,,0.00,610.0,WeatherDisplay:10.37,2013-04-09 10:57:00,
2013-04-09 06:02:00,70.2,64.8,29.69,SE,135,13.8,13.8,83,0.00,CLR,,0.00,590.0,WeatherDisplay:10.37,2013-04-09 11:02:00,
2013-04-09 06:07:00,70.2,64.8,29.69,SE,135,11.5,11.5,83,0.00,CLR,,0.00,590.0,WeatherDisplay:10.37,2013-04-09 11:07:00,
2013-04-09 06:12:00,70.3,65.3,29.69,SE,135,11.5,11.5,84,0.00,CLR,,0.00,590.0,WeatherDisplay:10.37,2013-04-09 11:12:00,
2013-04-09 06:18:00,70.3,65.3,29.69,SSE,158,11.5,11.5,84,0.00,CLR,,0.00,570.0,WeatherDisplay:10.37,2013-04-09 11:18:00,
2013-04-09 06:23:00,70.3,65.3,29.69,SE,135,10.4,10.4,84,0.00,CLR,,0.00,0.0,WeatherDisplay:10.37,2013-04-09 11:23:00,
2013-04-09 06:28:00,70.2,65.1,29.69,NNE,22,12.7,12.7,84,0.00,CLR,,0.00,620.0,WeatherDisplay:10.37,2013-04-09 11:28:00,
2013-04-09 06:33:00,70.2,65.1,29.70,ENE,68,10.8,10.8,84,0.00,CLR,,0.00,620.0,WeatherDisplay:10.37,2013-04-09 11:33:00,
2013-04-09 06:38:00,70.2,65.1,29.70,South,180,12.7,12.7,84,0.00,CLR,,0.00,630.0,WeatherDisplay:10.37,2013-04-09 11:38:00,
2013-04-09 06:43:00,70.2,65.1,29.70,SE,135,11.5,11.5,84,0.00,CLR,,0.00,620.0,WeatherDisplay:10.37,2013-04-09 11:43:00,
2013-04-09 06:49:00,70.0,64.9,29.70,SE,135,10.4,10.4,84,0.00,CLR,,0.00,630.0,WeatherDisplay:10.37,2013-04-09 11:49:00,
2013-04-09 06:54:00,70.0,64.9,29.70,SSE,158,5.8,7.0,84,0.00,CLR,,0.00,620.0,WeatherDisplay:10.37,2013-04-09 11:54:00,
2013-04-09 06:59:00,69.8,64.7,29.70,South,180,4.6,6.4,84,0.00,CLR,,0.00,620.0,WeatherDisplay:10.37,2013-04-09 11:59:00,
2013-04-09 07:04:00,70.0,65.3,29.70,SE,135,10.4,10.4,85,0.00,OVC,,0.00,590.0,WeatherDisplay:10.37,2013-04-09 12:04:00,
2013-04-09 07:09:00,69.8,65.1,29.71,SE,135,11.5,11.5,85,0.00,OVC,,0.00,540.0,WeatherDisplay:10.37,2013-04-09 12:09:00,
2013-04-09 07:15:00,69.6,64.9,29.71,SSW,202,10.4,10.4,85,0.00,OVC,,0.00,520.0,WeatherDisplay:10.37,2013-04-09 12:15:00,
2013-04-09 07:20:00,69.6,64.9,29.71,SSE,158,5.8,6.4,85,0.00,OVC,,0.00,500.0,WeatherDisplay:10.37,2013-04-09 12:20:00,
2013-04-09 07:26:00,69.6,64.9,29.71,SE,135,6.9,7.1,85,0.00,OVC,,0.00,500.0,WeatherDisplay:10.37,2013-04-09 12:26:00,
2013-04-09 07:31:00,69.6,64.9,29.73,SSE,158,8.1,8.1,85,0.00,OVC,,0.00,560.0,WeatherDisplay:10.37,2013-04-09 12:31:00,
2013-04-09 07:36:00,69.6,64.9,29.73,SE,135,5.8,5.8,85,0.00,OVC,,0.00,580.0,WeatherDisplay:10.37,2013-04-09 12:36:00,
2013-04-09 07:42:00,69.8,65.1,29.73,SSE,158,8.2,8.2,85,0.00,OVC,,0.00,600.0,WeatherDisplay:10.37,2013-04-09 12:42:00,
2013-04-09 07:47:00,70.0,65.3,29.73,SSE,158,11.5,11.5,85,0.00,OVC,,0.00,590.0,WeatherDisplay:10.37,2013-04-09 12:47:00,
2013-04-09 07:53:00,70.0,65.3,29.73,SSE,158,9.2,9.2,85,0.00,OVC,,0.00,600.0,WeatherDisplay:10.37,2013-04-09 12:53:00,
2013-04-09 07:58:00,70.0,65.3,29.73,SE,135,13.3,13.3,85,0.00,OVC,,0.00,600.0,WeatherDisplay:10.37,2013-04-09 12:58:00,
2013-04-09 08:03:00,70.0,65.3,29.73,SE,135,9.5,9.5,85,0.00,OVC,,0.00,650.0,WeatherDisplay:10.37,2013-04-09 13:03:00,
2013-04-09 08:09:00,70.0,64.9,29.72,ESE,112,9.2,9.2,84,0.00,OVC,,0.00,750.0,WeatherDisplay:10.37,2013-04-09 13:09:00,
2013-04-09 08:14:00,70.2,65.1,29.72,ESE,112,7.0,7.5,84,0.00,OVC,,0.00,870.0,WeatherDisplay:10.37,2013-04-09 13:14:00,
2013-04-09 08:19:00,70.3,65.3,29.72,SSE,158,10.4,10.4,84,0.00,OVC,,0.00,1020.0,WeatherDisplay:10.37,2013-04-09 13:19:00,
2013-04-09 08:24:00,70.2,64.8,29.72,SE,135,9.2,9.2,83,0.00,OVC,,0.00,1150.0,WeatherDisplay:10.37,2013-04-09 13:24:00,
2013-04-09 08:29:00,70.3,64.9,29.72,SE,135,9.2,9.2,83,0.00,OVC,,0.00,1230.0,WeatherDisplay:10.37,2013-04-09 13:29:00,
2013-04-09 08:35:00,70.3,64.9,29.72,SSE,158,10.4,10.4,83,0.00,OVC,,0.00,1310.0,WeatherDisplay:10.37,2013-04-09 13:35:00,
2013-04-09 08:40:00,70.5,65.1,29.72,SE,135,14.4,14.4,83,0.00,OVC,,0.00,1390.0,WeatherDisplay:10.37,2013-04-09 13:40:00,
2013-04-09 08:45:00,70.7,64.9,29.72,East,90,16.1,16.1,82,0.00,OVC,,0.00,1320.0,WeatherDisplay:10.37,2013-04-09 13:45:00,
2013-04-09 08:50:00,70.7,64.9,29.72,SE,135,11.5,11.5,82,0.00,OVC,,0.00,1130.0,WeatherDisplay:10.37,2013-04-09 13:50:00,
2013-04-09 08:55:00,70.7,64.6,29.72,SE,135,19.6,19.6,81,0.00,OVC,,0.00,1130.0,WeatherDisplay:10.37,2013-04-09 13:55:00,
2013-04-09 09:01:00,71.1,64.9,29.72,SE,135,19.6,19.6,81,0.00,OVC,,0.00,730.0,WeatherDisplay:10.37,2013-04-09 14:01:00,
2013-04-09 09:06:00,71.1,64.9,29.72,South,180,13.8,13.8,81,0.00,OVC,,0.00,630.0,WeatherDisplay:10.37,2013-04-09 14:06:00,
2013-04-09 09:11:00,71.1,64.9,29.71,SSE,158,18.4,18.4,81,0.00,OVC,,0.00,540.0,WeatherDisplay:10.37,2013-04-09 14:11:00,
2013-04-09 09:16:00,71.2,64.8,29.71,SSE,158,13.7,13.7,80,0.00,OVC,,0.00,450.0,WeatherDisplay:10.37,2013-04-09 14:16:00,
2013-04-09 09:22:00,71.4,64.9,29.71,SSE,158,16.1,16.1,80,0.00,OVC,,0.00,320.0,WeatherDisplay:10.37,2013-04-09 14:22:00,
2013-04-09 09:27:00,71.6,65.1,29.71,SSE,158,12.7,12.7,80,0.00,OVC,,0.00,320.0,WeatherDisplay:10.37,2013-04-09 14:27:00,
2013-04-09 09:32:00,71.6,64.7,29.72,ESE,112,11.5,11.5,79,0.00,OVC,,0.00,320.0,WeatherDisplay:10.37,2013-04-09 14:32:00,
2013-04-09 09:37:00,71.8,64.9,29.72,SE,135,17.3,17.3,79,0.00,OVC,,0.00,250.0,WeatherDisplay:10.37,2013-04-09 14:37:00,
2013-04-09 09:42:00,72.0,65.1,29.72,SSE,158,8.1,8.9,79,0.00,OVC,,0.00,230.0,WeatherDisplay:10.37,2013-04-09 14:42:00,
2013-04-09 09:47:00,72.1,65.3,29.72,ESE,112,18.4,18.4,79,0.00,OVC,,0.00,240.0,WeatherDisplay:10.37,2013-04-09 14:47:00,
2013-04-09 09:53:00,72.1,65.3,29.72,SE,135,15.0,15.0,79,0.00,OVC,,0.00,240.0,WeatherDisplay:10.37,2013-04-09 14:53:00,
2013-04-09 09:58:00,72.3,65.1,29.72,SE,135,9.2,9.2,78,0.00,OVC,,0.00,270.0,WeatherDisplay:10.37,2013-04-09 14:58:00,
2013-04-09 10:03:00,72.3,65.1,29.72,SSE,158,16.1,16.1,78,0.00,OVC,,0.00,190.0,WeatherDisplay:10.37,2013-04-09 15:03:00,
2013-04-09 10:08:00,72.5,64.9,29.70,South,180,17.3,17.3,77,0.00,OVC,,0.00,200.0,WeatherDisplay:10.37,2013-04-09 15:08:00,
2013-04-09 10:13:00,72.5,64.9,29.70,SE,135,17.3,17.3,77,0.00,OVC,,0.00,210.0,WeatherDisplay:10.37,2013-04-09 15:13:00,
2013-04-09 10:18:00,72.7,65.1,29.70,SSE,158,18.4,18.4,77,0.00,OVC,,0.00,260.0,WeatherDisplay:10.37,2013-04-09 15:18:00,
2013-04-09 10:23:00,72.9,64.8,29.70,South,180,17.3,17.3,76,0.00,OVC,,0.00,190.0,WeatherDisplay:10.37,2013-04-09 15:23:00,
2013-04-09 10:28:00,73.2,65.2,29.69,SSE,158,12.7,12.7,76,0.00,OVC,,0.00,180.0,WeatherDisplay:10.37,2013-04-09 15:28:00,
2013-04-09 10:34:00,73.4,65.0,29.69,South,180,17.3,17.3,75,0.00,OVC,,0.00,130.0,WeatherDisplay:10.37,2013-04-09 15:34:00,
2013-04-09 10:39:00,73.6,65.2,29.69,SSE,158,9.2,9.2,75,0.00,OVC,,0.00,80.0,WeatherDisplay:10.37,2013-04-09 15:39:00,
2013-04-09 10:44:00,73.6,65.2,29.69,SE,135,13.0,13.0,75,0.00,OVC,,0.00,80.0,WeatherDisplay:10.37,2013-04-09 15:44:00,
2013-04-09 10:49:00,73.6,65.2,29.70,SSE,158,11.5,11.5,75,0.00,OVC,,0.00,70.0,WeatherDisplay:10.37,2013-04-09 15:49:00,
2013-04-09 10:54:00,73.8,65.3,29.70,SSE,158,9.2,10.9,75,0.00,OVC,,0.00,70.0,WeatherDisplay:10.37,2013-04-09 15:54:00,
2013-04-09 10:59:00,73.9,65.5,29.70,South,180,17.3,17.3,75,0.00,OVC,,0.00,50.0,WeatherDisplay:10.37,2013-04-09 15:59:00,
2013-04-09 11:05:00,73.9,65.1,29.70,South,180,16.1,16.1,74,0.00,OVC,,0.00,50.0,WeatherDisplay:10.37,2013-04-09 16:05:00,
2013-04-09 11:10:00,73.9,65.1,29.71,SE,135,16.1,16.1,74,0.00,OVC,,0.00,40.0,WeatherDisplay:10.37,2013-04-09 16:10:00,
2013-04-09 11:15:00,73.9,65.1,29.71,SE,135,12.7,12.7,74,0.00,OVC,,0.00,40.0,WeatherDisplay:10.37,2013-04-09 16:15:00,
2013-04-09 11:20:00,74.3,65.5,29.71,South,180,15.0,15.0,74,0.00,OVC,,0.00,40.0,WeatherDisplay:10.37,2013-04-09 16:20:00,
2013-04-09 11:25:00,74.5,65.3,29.71,SE,135,11.5,11.5,73,0.00,OVC,,0.00,40.0,WeatherDisplay:10.37,2013-04-09 16:25:00,
2013-04-09 11:30:00,74.5,65.3,29.73,SE,135,11.5,11.5,73,0.00,OVC,,0.00,20.0,WeatherDisplay:10.37,2013-04-09 16:30:00,
2013-04-09 11:35:00,74.5,64.9,29.73,SSE,158,13.8,13.8,72,0.00,OVC,,0.00,20.0,WeatherDisplay:10.37,2013-04-09 16:35:00,
2013-04-09 11:41:00,74.7,65.0,29.73,ESE,112,10.4,10.4,72,0.00,OVC,,0.00,20.0,WeatherDisplay:10.37,2013-04-09 16:41:00,
2013-04-09 11:46:00,74.5,64.9,29.73,ESE,112,12.7,12.7,72,0.00,OVC,,0.00,20.0,WeatherDisplay:10.37,2013-04-09 16:46:00,
2013-04-09 11:52:00,74.3,64.7,29.72,SSE,158,13.8,13.8,72,0.00,OVC,,0.00,20.0,WeatherDisplay:10.37,2013-04-09 16:52:00,
2013-04-09 11:57:00,74.3,64.7,29.72,SSE,158,16.1,16.1,72,0.00,OVC,,0.00,20.0,WeatherDisplay:10.37,2013-04-09 16:57:00,
2013-04-09 12:02:00,74.7,65.0,29.72,South,180,11.5,11.5,72,0.00,OVC,,0.00,20.0,WeatherDisplay:10.37,2013-04-09 17:02:00,
2013-04-09 12:07:00,74.7,65.0,29.72,South,180,10.4,10.4,72,0.00,OVC,,0.00,20.0,WeatherDisplay:10.37,2013-04-09 17:07:00,
2013-04-09 12:13:00,74.5,65.3,29.72,ESE,112,10.4,10.4,73,0.00,CLR,,0.00,20.0,WeatherDisplay:10.37,2013-04-09 17:13:00,
2013-04-09 12:18:00,74.7,65.4,29.72,SSE,158,13.0,13.0,73,0.00,FEW,,0.00,20.0,WeatherDisplay:10.37,2013-04-09 17:18:00,
2013-04-09 12:23:00,74.5,65.3,29.72,South,180,8.1,8.1,73,0.00,BKN,,0.00,20.0,WeatherDisplay:10.37,2013-04-09 17:23:00,
2013-04-09 12:28:00,74.5,65.3,29.73,SE,135,10.4,10.4,73,0.00,OVC,,0.00,10.0,WeatherDisplay:10.37,2013-04-09 17:28:00,
2013-04-09 12:34:00,74.3,65.5,29.73,WSW,248,11.5,11.5,74,0.00,OVC,,0.00,10.0,WeatherDisplay:10.37,2013-04-09 17:34:00,
2013-04-09 12:39:00,74.3,65.5,29.73,SSE,158,8.1,8.1,74,0.00,OVC,,0.00,10.0,WeatherDisplay:10.37,2013-04-09 17:39:00,
2013-04-09 12:44:00,73.9,65.5,29.73,South,180,9.2,9.2,75,0.00,OVC,,0.00,10.0,WeatherDisplay:10.37,2013-04-09 17:44:00,
2013-04-09 12:49:00,73.9,65.5,29.73,SE,135,6.9,6.9,75,0.00,OVC,,0.00,10.0,WeatherDisplay:10.37,2013-04-09 17:49:00,
2013-04-09 12:54:00,73.9,65.5,29.73,SSE,158,11.5,11.5,75,0.00,OVC,,0.00,10.0,WeatherDisplay:10.37,2013-04-09 17:54:00,
2013-04-09 12:59:00,73.9,65.5,29.73,WNW,292,10.4,10.4,75,0.00,OVC,,0.00,20.0,WeatherDisplay:10.37,2013-04-09 17:59:00,
2013-04-09 13:04:00,74.1,65.7,29.73,SSE,158,12.7,12.7,75,0.00,OVC,,0.00,20.0,WeatherDisplay:10.37,2013-04-09 18:04:00,
2013-04-09 13:09:00,74.3,65.9,29.73,West,270,6.9,6.9,75,0.00,OVC,,0.00,30.0,WeatherDisplay:10.37,2013-04-09 18:09:00,
2013-04-09 13:15:00,74.3,65.9,29.73,SSE,158,4.6,4.6,75,0.00,OVC,,0.00,30.0,WeatherDisplay:10.37,2013-04-09 18:15:00,
2013-04-09 13:20:00,74.7,66.2,29.73,SSW,202,10.4,10.4,75,0.00,OVC,,0.00,30.0,WeatherDisplay:10.37,2013-04-09 18:20:00,
2013-04-09 13:25:00,74.5,66.0,29.73,South,180,6.9,6.9,75,0.00,OVC,,0.00,30.0,WeatherDisplay:10.37,2013-04-09 18:25:00,
2013-04-09 13:30:00,75.0,66.6,29.72,South,180,11.5,11.5,75,0.00,OVC,,0.00,30.0,WeatherDisplay:10.37,2013-04-09 18:30:00,
2013-04-09 13:35:00,74.8,66.4,29.72,South,180,4.6,4.6,75,0.00,OVC,,0.00,30.0,WeatherDisplay:10.37,2013-04-09 18:35:00,
2013-04-09 13:41:00,75.0,66.6,29.72,South,180,5.8,5.8,75,0.00,OVC,,0.00,20.0,WeatherDisplay:10.37,2013-04-09 18:41:00,
2013-04-09 13:46:00,75.2,66.3,29.72,SSE,158,6.9,6.9,74,0.00,OVC,,0.00,20.0,WeatherDisplay:10.37,2013-04-09 18:46:00,
2013-04-09 13:51:00,75.2,66.3,29.72,WSW,248,5.8,5.8,74,0.00,OVC,,0.00,20.0,WeatherDisplay:10.37,2013-04-09 18:51:00,
2013-04-09 13:57:00,75.2,65.9,29.72,SSE,158,5.8,5.8,73,0.00,OVC,,0.00,20.0,WeatherDisplay:10.37,2013-04-09 18:57:00,
2013-04-09 14:02:00,75.4,66.1,29.72,SSE,158,11.5,11.5,73,0.00,OVC,,0.00,20.0,WeatherDisplay:10.37,2013-04-09 19:02:00,
2013-04-09 14:07:00,75.6,65.9,29.72,South,180,13.8,13.8,72,0.00,OVC,,0.00,20.0,WeatherDisplay:10.37,2013-04-09 19:07:00,
2013-04-09 14:12:00,75.6,65.9,29.70,SE,135,6.9,6.9,72,0.00,OVC,,0.00,30.0,WeatherDisplay:10.37,2013-04-09 19:12:00,
2013-04-09 14:18:00,75.7,66.1,29.70,West,270,9.2,9.2,72,0.00,OVC,,0.00,30.0,WeatherDisplay:10.37,2013-04-09 19:18:00,
2013-04-09 14:23:00,76.1,66.4,29.70,SSE,158,9.2,9.2,72,0.00,OVC,,0.00,30.0,WeatherDisplay:10.37,2013-04-09 19:23:00,
2013-04-09 14:28:00,76.1,66.4,29.70,South,180,4.6,5.1,72,0.00,OVC,,0.00,30.0,WeatherDisplay:10.37,2013-04-09 19:28:00,
2013-04-09 14:33:00,75.9,66.2,29.70,SE,135,6.9,6.9,72,0.00,OVC,,0.00,30.0,WeatherDisplay:10.37,2013-04-09 19:33:00,
2013-04-09 14:39:00,76.1,66.4,29.70,ESE,112,5.8,5.8,72,0.00,OVC,,0.00,30.0,WeatherDisplay:10.37,2013-04-09 19:39:00,
2013-04-09 14:44:00,76.5,66.8,29.70,SSE,158,6.9,6.9,72,0.00,OVC,,0.00,30.0,WeatherDisplay:10.37,2013-04-09 19:44:00,
2013-04-09 14:49:00,76.6,66.5,29.69,South,180,16.1,16.1,71,0.00,OVC,,0.00,40.0,WeatherDisplay:10.37,2013-04-09 19:49:00,
2013-04-09 14:54:00,76.6,66.5,29.69,ESE,112,5.8,6.2,71,0.00,OVC,,0.00,40.0,WeatherDisplay:10.37,2013-04-09 19:54:00,
2013-04-09 15:00:00,77.2,66.6,29.69,ESE,112,10.5,10.5,70,0.00,OVC,,0.00,40.0,WeatherDisplay:10.37,2013-04-09 20:00:00,
2013-04-09 15:05:00,77.5,67.0,29.69,SSE,158,11.5,11.5,70,0.00,OVC,,0.00,40.0,WeatherDisplay:10.37,2013-04-09 20:05:00,
2013-04-09 15:10:00,77.9,67.3,29.68,SE,135,12.7,12.7,70,0.00,OVC,,0.00,40.0,WeatherDisplay:10.37,2013-04-09 20:10:00,
2013-04-09 15:15:00,78.1,67.1,29.68,SE,135,11.5,11.5,69,0.00,OVC,,0.00,40.0,WeatherDisplay:10.37,2013-04-09 20:15:00,
2013-04-09 15:20:00,78.6,67.6,29.68,East,90,9.2,9.2,69,0.00,OVC,,0.00,30.0,WeatherDisplay:10.37,2013-04-09 20:20:00,
2013-04-09 15:25:00,78.4,67.0,29.68,South,180,10.4,10.4,68,0.00,OVC,,0.00,30.0,WeatherDisplay:10.37,2013-04-09 20:25:00,
2013-04-09 15:30:00,78.1,66.7,29.68,ESE,112,11.5,11.5,68,0.00,OVC,,0.00,10.0,WeatherDisplay:10.37,2013-04-09 20:30:00,
2013-04-09 15:37:00,78.3,67.3,29.68,SSE,158,8.1,8.1,69,0.00,OVC,,0.00,10.0,WeatherDisplay:10.37,2013-04-09 20:37:00,
2013-04-09 15:42:00,78.3,67.3,29.68,ESE,112,10.4,10.4,69,0.00,OVC,,0.00,10.0,WeatherDisplay:10.37,2013-04-09 20:42:00,
2013-04-09 15:47:00,78.1,67.1,29.68,South,180,11.5,11.5,69,0.00,OVC,,0.00,10.0,WeatherDisplay:10.37,2013-04-09 20:47:00,
2013-04-09 15:53:00,78.4,67.0,29.67,SSE,158,11.5,11.5,68,0.00,OVC,,0.00,30.0,WeatherDisplay:10.37,2013-04-09 20:53:00,
2013-04-09 15:58:00,78.6,67.2,29.67,SE,135,9.2,9.2,68,0.00,OVC,,0.00,30.0,WeatherDisplay:10.37,2013-04-09 20:58:00,
2013-04-09 16:03:00,79.0,67.5,29.67,SSE,158,12.7,12.7,68,0.00,OVC,,0.00,30.0,WeatherDisplay:10.37,2013-04-09 21:03:00,
2013-04-09 16:08:00,79.2,66.8,29.68,SSE,158,13.8,13.8,66,0.00,OVC,,0.00,40.0,WeatherDisplay:10.37,2013-04-09 21:08:00,
2013-04-09 16:13:00,79.3,67.0,29.68,SE,135,17.3,17.3,66,0.00,OVC,,0.00,20.0,WeatherDisplay:10.37,2013-04-09 21:13:00,
2013-04-09 16:19:00,79.5,67.6,29.68,SSE,158,10.4,10.4,67,0.00,OVC,,0.00,30.0,WeatherDisplay:10.37,2013-04-09 21:19:00,
2013-04-09 16:24:00,80.1,67.7,29.68,SSE,158,8.1,8.1,66,0.00,OVC,,0.00,30.0,WeatherDisplay:10.37,2013-04-09 21:24:00,
2013-04-09 16:29:00,79.7,67.3,29.67,SE,135,13.8,13.8,66,0.00,OVC,,0.00,10.0,WeatherDisplay:10.37,2013-04-09 21:29:00,
2013-04-09 16:35:00,79.5,67.2,29.67,SSE,158,9.4,9.4,66,0.00,OVC,,0.00,10.0,WeatherDisplay:10.37,2013-04-09 21:35:00,
2013-04-09 16:40:00,79.7,67.8,29.67,ESE,112,9.2,9.2,67,0.00,OVC,,0.00,20.0,WeatherDisplay:10.37,2013-04-09 21:40:00,
2013-04-09 16:45:00,79.5,67.2,29.67,South,180,13.8,13.8,66,0.00,OVC,,0.00,20.0,WeatherDisplay:10.37,2013-04-09 21:45:00,
2013-04-09 16:50:00,79.7,67.3,29.67,SE,135,6.6,7.2,66,0.00,OVC,,0.00,10.0,WeatherDisplay:10.37,2013-04-09 21:50:00,
2013-04-09 16:56:00,79.5,67.2,29.67,SSE,158,8.1,8.1,66,0.00,OVC,,0.00,10.0,WeatherDisplay:10.37,2013-04-09 21:56:00,
2013-04-09 17:01:00,79.5,67.2,29.67,SSE,158,10.4,10.4,66,0.00,OVC,,0.00,10.0,WeatherDisplay:10.37,2013-04-09 22:01:00,
2013-04-09 17:06:00,79.5,67.2,29.67,SE,135,8.1,8.1,66,0.00,OVC,,0.00,10.0,WeatherDisplay:10.37,2013-04-09 22:06:00,
2013-04-09 17:12:00,79.5,67.2,29.69,SE,135,10.4,10.4,66,0.00,OVC,,0.00,10.0,WeatherDisplay:10.37,2013-04-09 22:12:00,
2013-04-09 17:17:00,79.5,67.2,29.69,SSE,158,12.3,12.3,66,0.00,OVC,,0.00,10.0,WeatherDisplay:10.37,2013-04-09 22:17:00,
2013-04-09 17:22:00,79.5,67.2,29.69,SE,135,9.2,9.2,66,0.00,OVC,,0.00,20.0,WeatherDisplay:10.37,2013-04-09 22:22:00,
2013-04-09 17:27:00,80.1,68.1,29.69,SSE,158,8.1,8.1,67,0.00,OVC,,0.00,20.0,WeatherDisplay:10.37,2013-04-09 22:27:00,
2013-04-09 17:32:00,80.6,67.7,29.69,SE,135,4.6,5.2,65,0.00,OVC,,0.00,30.0,WeatherDisplay:10.37,2013-04-09 22:32:00,
2013-04-09 17:37:00,81.1,68.3,29.69,SSE,158,8.1,8.1,65,0.00,OVC,,0.00,30.0,WeatherDisplay:10.37,2013-04-09 22:37:00,
2013-04-09 17:43:00,81.1,67.8,29.69,SE,135,9.2,9.2,64,0.00,OVC,,0.00,30.0,WeatherDisplay:10.37,2013-04-09 22:43:00,
2013-04-09 17:48:00,81.3,68.0,29.69,SSE,158,5.8,5.8,64,0.00,OVC,,0.00,20.0,WeatherDisplay:10.37,2013-04-09 22:48:00,
2013-04-09 17:53:00,81.5,68.1,29.68,SE,135,5.8,5.8,64,0.00,OVC,,0.00,20.0,WeatherDisplay:10.37,2013-04-09 22:53:00,
2013-04-09 17:58:00,81.3,67.5,29.68,SE,135,9.2,9.2,63,0.00,OVC,,0.00,20.0,WeatherDisplay:10.37,2013-04-09 22:58:00,
2013-04-09 18:03:00,81.3,68.0,29.68,ESE,112,9.2,9.2,64,0.00,OVC,,0.00,10.0,WeatherDisplay:10.37,2013-04-09 23:03:00,
2013-04-09 18:08:00,81.5,68.1,29.67,ESE,112,6.9,6.9,64,0.00,OVC,,0.00,10.0,WeatherDisplay:10.37,2013-04-09 23:08:00,
2013-04-09 18:13:00,81.1,67.3,29.67,SSE,158,8.1,8.1,63,0.00,OVC,,0.00,10.0,WeatherDisplay:10.37,2013-04-09 23:13:00,
2013-04-09 18:18:00,81.1,67.8,29.67,SE,135,5.8,6.7,64,0.00,OVC,,0.00,10.0,WeatherDisplay:10.37,2013-04-09 23:18:00,
2013-04-09 18:24:00,81.0,67.6,29.67,SSE,158,9.5,9.5,64,0.00,OVC,,0.00,10.0,WeatherDisplay:10.37,2013-04-09 23:24:00,
2013-04-09 18:29:00,81.1,67.3,29.67,South,180,10.4,10.4,63,0.00,OVC,,0.00,10.0,WeatherDisplay:10.37,2013-04-09 23:29:00,
2013-04-09 18:34:00,81.1,67.3,29.67,SE,135,8.1,8.1,63,0.00,OVC,,0.00,10.0,WeatherDisplay:10.37,2013-04-09 23:34:00,
2013-04-09 18:39:00,81.1,67.3,29.67,SSE,158,15.0,15.0,63,0.00,OVC,,0.00,10.0,WeatherDisplay:10.37,2013-04-09 23:39:00,
2013-04-09 18:44:00,81.0,67.2,29.67,SSE,158,6.9,8.3,63,0.00,OVC,,0.00,10.0,WeatherDisplay:10.37,2013-04-09 23:44:00,
2013-04-09 18:50:00,81.0,67.2,29.67,SE,135,8.1,8.1,63,0.00,OVC,,0.00,10.0,WeatherDisplay:10.37,2013-04-09 23:50:00,
2013-04-09 18:55:00,81.1,67.3,29.67,SSE,158,11.5,11.5,63,0.00,OVC,,0.00,10.0,WeatherDisplay:10.37,2013-04-09 23:55:00,
2013-04-09 19:00:00,81.0,67.2,29.67,NE,45,6.9,6.9,63,0.00,OVC,,0.00,10.0,WeatherDisplay:10.37,2013-04-10 00:00:00,
2013-04-09 19:05:00,81.0,67.2,29.67,ESE,112,10.4,10.4,63,0.00,OVC,,0.00,10.0,WeatherDisplay:10.37,2013-04-10 00:05:00,
2013-04-09 19:10:00,81.1,67.3,29.66,ESE,112,11.5,11.5,63,0.00,OVC,,0.00,10.0,WeatherDisplay:10.37,2013-04-10 00:10:00,
2013-04-09 19:16:00,81.1,67.3,29.66,SSE,158,8.1,8.1,63,0.00,OVC,,0.00,10.0,WeatherDisplay:10.37,2013-04-10 00:16:00,
2013-04-09 19:21:00,80.8,67.0,29.66,SSE,158,8.1,8.1,63,0.00,OVC,,0.00,0.0,WeatherDisplay:10.37,2013-04-10 00:21:00,
2013-04-09 19:27:00,80.6,67.3,29.66,SSE,158,6.9,6.9,64,0.00,OVC,,0.00,0.0,WeatherDisplay:10.37,2013-04-10 00:27:00,
2013-04-09 19:32:00,80.4,67.1,29.67,SSE,158,8.1,8.1,64,0.00,OVC,,0.00,10.0,WeatherDisplay:10.37,2013-04-10 00:32:00,
2013-04-09 19:37:00,80.1,66.8,29.67,ENE,68,6.9,6.9,64,0.00,OVC,,0.00,10.0,WeatherDisplay:10.37,2013-04-10 00:37:00,
2013-04-09 19:43:00,80.1,66.8,29.67,SSE,158,5.8,5.8,64,0.00,OVC,,0.00,10.0,WeatherDisplay:10.37,2013-04-10 00:43:00,
2013-04-09 19:48:00,79.7,66.9,29.67,SE,135,6.9,6.9,65,0.00,OVC,,0.00,20.0,WeatherDisplay:10.37,2013-04-10 00:48:00,
2013-04-09 19:53:00,79.7,66.9,29.66,SE,135,11.5,11.5,65,0.00,OVC,,0.00,30.0,WeatherDisplay:10.37,2013-04-10 00:53:00,
2013-04-09 19:58:00,79.5,66.7,29.66,SE,135,5.8,5.8,65,0.00,OVC,,0.00,40.0,WeatherDisplay:10.37,2013-04-10 00:58:00,
2013-04-09 20:03:00,79.3,67.0,29.66,ESE,112,9.2,9.2,66,0.00,CLR,,0.00,50.0,WeatherDisplay:10.37,2013-04-10 01:03:00,
2013-04-09 20:08:00,79.2,66.8,29.66,SSE,158,8.1,8.1,66,0.00,CLR,,0.00,60.0,WeatherDisplay:10.37,2013-04-10 01:08:00,
2013-04-09 20:13:00,78.8,66.5,29.65,SE,135,9.2,9.2,66,0.00,CLR,,0.00,90.0,WeatherDisplay:10.37,2013-04-10 01:13:00,
2013-04-09 20:18:00,78.8,66.5,29.65,ESE,112,5.8,5.8,66,0.00,CLR,,0.00,110.0,WeatherDisplay:10.37,2013-04-10 01:18:00,
2013-04-09 20:23:00,78.6,66.3,29.65,South,180,9.2,9.2,66,0.00,CLR,,0.00,120.0,WeatherDisplay:10.37,2013-04-10 01:23:00,
2013-04-09 20:28:00,78.4,66.6,29.66,SE,135,4.6,5.2,67,0.00,CLR,,0.00,120.0,WeatherDisplay:10.37,2013-04-10 01:28:00,
2013-04-09 20:33:00,78.6,66.7,29.66,SE,135,6.9,6.9,67,0.00,CLR,,0.00,110.0,WeatherDisplay:10.37,2013-04-10 01:33:00,
2013-04-09 20:39:00,78.3,66.4,29.66,SE,135,9.2,9.2,67,0.00,CLR,,0.00,0.0,WeatherDisplay:10.37,2013-04-10 01:39:00,
2013-04-09 20:44:00,78.3,66.8,29.66,East,90,3.5,4.6,68,0.00,CLR,,0.00,200.0,WeatherDisplay:10.37,2013-04-10 01:44:00,
2013-04-09 20:49:00,78.3,66.8,29.69,SSE,158,5.8,5.8,68,0.00,CLR,,0.00,250.0,WeatherDisplay:10.37,2013-04-10 01:49:00,
2013-04-09 20:54:00,78.1,66.7,29.69,SE,135,2.9,3.3,68,0.00,CLR,,0.00,220.0,WeatherDisplay:10.37,2013-04-10 01:54:00,
2013-04-09 20:59:00,78.3,66.8,29.69,SSE,158,5.8,5.8,68,0.00,CLR,,0.00,190.0,WeatherDisplay:10.37,2013-04-10 01:59:00,
2013-04-09 21:05:00,78.1,67.1,29.69,East,90,6.0,6.0,69,0.00,CLR,,0.00,230.0,WeatherDisplay:10.37,2013-04-10 02:05:00,
2013-04-09 21:10:00,77.9,66.9,29.70,East,90,2.4,3.2,69,0.00,CLR,,0.00,250.0,WeatherDisplay:10.37,2013-04-10 02:10:00,
2013-04-09 21:15:00,77.9,67.3,29.70,ESE,112,3.5,3.5,70,0.00,CLR,,0.00,280.0,WeatherDisplay:10.37,2013-04-10 02:15:00,
2013-04-09 21:20:00,77.9,67.3,29.70,ESE,112,4.6,4.6,70,0.00,CLR,,0.00,320.0,WeatherDisplay:10.37,2013-04-10 02:20:00,
2013-04-09 21:25:00,77.9,67.3,29.70,SE,135,5.8,5.8,70,0.00,CLR,,0.00,320.0,WeatherDisplay:10.37,2013-04-10 02:25:00,
2013-04-09 21:30:00,77.7,67.2,29.70,ESE,112,4.6,4.9,70,0.00,CLR,,0.00,350.0,WeatherDisplay:10.37,2013-04-10 02:30:00,
2013-04-09 21:36:00,77.5,67.0,29.70,SE,135,8.1,8.1,70,0.00,CLR,,0.00,0.0,WeatherDisplay:10.37,2013-04-10 02:36:00,
2013-04-09 21:41:00,77.4,67.2,29.70,South,180,8.1,8.1,71,0.00,CLR,,0.00,320.0,WeatherDisplay:10.37,2013-04-10 02:41:00,
2013-04-09 21:46:00,77.4,67.2,29.70,ESE,112,3.5,4.8,71,0.00,CLR,,0.00,320.0,WeatherDisplay:10.37,2013-04-10 02:46:00,
2013-04-09 21:52:00,77.2,67.0,29.71,ESE,112,5.1,5.1,71,0.00,CLR,,0.00,0.0,WeatherDisplay:10.37,2013-04-10 02:52:00,
2013-04-09 21:57:00,77.2,67.5,29.71,ESE,112,5.8,5.8,72,0.00,CLR,,0.00,390.0,WeatherDisplay:10.37,2013-04-10 02:57:00,
2013-04-09 22:02:00,77.2,67.5,29.71,SE,135,5.8,5.8,72,0.00,CLR,,0.00,410.0,WeatherDisplay:10.37,2013-04-10 03:02:00,
2013-04-09 22:08:00,77.0,67.7,29.71,SE,135,9.7,9.7,73,0.00,CLR,,0.00,0.0,WeatherDisplay:10.37,2013-04-10 03:08:00,
2013-04-09 22:13:00,76.8,67.5,29.72,SE,135,11.5,11.5,73,0.00,CLR,,0.00,430.0,WeatherDisplay:10.37,2013-04-10 03:13:00,
2013-04-09 22:18:00,76.6,67.7,29.72,SE,135,7.2,7.2,74,0.00,CLR,,0.00,440.0,WeatherDisplay:10.37,2013-04-10 03:18:00,
2013-04-09 22:23:00,76.6,67.7,29.72,SSE,158,8.1,8.1,74,0.00,CLR,,0.00,430.0,WeatherDisplay:10.37,2013-04-10 03:23:00,
2013-04-09 22:28:00,76.6,67.7,29.72,ESE,112,5.8,6.2,74,0.00,CLR,,0.00,430.0,WeatherDisplay:10.37,2013-04-10 03:28:00,
2013-04-09 22:34:00,76.3,67.8,29.72,SE,135,4.6,5.6,75,0.00,CLR,,0.00,410.0,WeatherDisplay:10.37,2013-04-10 03:34:00,
2013-04-09 22:39:00,76.5,67.9,29.72,ESE,112,6.9,6.9,75,0.00,CLR,,0.00,370.0,WeatherDisplay:10.37,2013-04-10 03:39:00,
2013-04-09 22:44:00,76.1,68.0,29.72,ESE,112,6.9,6.9,76,0.00,CLR,,0.00,360.0,WeatherDisplay:10.37,2013-04-10 03:44:00,
2013-04-09 22:50:00,76.1,68.0,29.73,ESE,112,10.4,10.4,76,0.00,CLR,,0.00,370.0,WeatherDisplay:10.37,2013-04-10 03:50:00,
2013-04-09 22:55:00,76.1,68.4,29.73,ESE,112,9.2,9.2,77,0.00,CLR,,0.00,360.0,WeatherDisplay:10.37,2013-04-10 03:55:00,
2013-04-09 23:00:00,75.7,68.0,29.73,ESE,112,6.9,6.9,77,0.00,CLR,,0.00,360.0,WeatherDisplay:10.37,2013-04-10 04:00:00,
2013-04-09 23:01:00,75.7,68.0,29.73,SE,135,6.9,6.9,77,0.00,CLR,,0.00,350.0,WeatherDisplay:10.37,2013-04-10 04:01:00,
2013-04-09 23:06:00,75.6,67.8,29.73,SE,135,5.8,5.8,77,0.00,CLR,,0.00,350.0,WeatherDisplay:10.37,2013-04-10 04:06:00,
2013-04-09 23:11:00,75.7,68.0,29.73,SE,135,9.2,9.2,77,0.00,CLR,,0.00,350.0,WeatherDisplay:10.37,2013-04-10 04:11:00,
2013-04-09 23:16:00,75.4,68.0,29.73,SSE,158,6.9,6.9,78,0.00,CLR,,0.00,360.0,WeatherDisplay:10.37,2013-04-10 04:16:00,
2013-04-09 23:22:00,75.4,68.0,29.73,SE,135,6.9,6.9,78,0.00,CLR,,0.00,380.0,WeatherDisplay:10.37,2013-04-10 04:22:00,
2013-04-09 23:27:00,75.2,67.9,29.73,ESE,112,6.9,6.9,78,0.00,CLR,,0.00,0.0,WeatherDisplay:10.37,2013-04-10 04:27:00,
2013-04-09 23:32:00,75.4,68.0,29.74,East,90,9.2,9.2,78,0.00,CLR,,0.00,380.0,WeatherDisplay:10.37,2013-04-10 04:32:00,
2013-04-09 23:37:00,75.2,67.9,29.74,East,90,4.6,5.3,78,0.00,CLR,,0.00,390.0,WeatherDisplay:10.37,2013-04-10 04:37:00,
2013-04-09 23:42:00,75.2,68.2,29.74,ESE,112,8.2,8.2,79,0.00,CLR,,0.00,410.0,WeatherDisplay:10.37,2013-04-10 04:42:00,
2013-04-09 23:47:00,75.2,68.2,29.74,SE,135,7.1,7.1,79,0.00,CLR,,0.00,440.0,WeatherDisplay:10.37,2013-04-10 04:47:00,
2013-04-09 23:53:00,75.0,68.1,29.74,East,90,6.9,6.9,79,0.00,CLR,,0.00,470.0,WeatherDisplay:10.37,2013-04-10 04:53:00,
2013-04-09 23:58:00,75.0,68.1,29.74,ESE,112,8.1,8.1,79,0.00,CLR,,0.00,490.0,WeatherDisplay:10.37,2013-04-10 04:58:00,